Volver al catálogo

FENGYUN 1C DEB

ActivoPO
NORAD 31910·DEBRIS·🇨🇳 China

Lanzado May 10, 1999 desde Taiyuan Satellite Launch Center

Loading…

Próximos Pases (próximas 24 horas)

TLE

EnvejeciendoSource: Space-Track

Época: Sep 9, 2026, 06:16 UTC

1 31910U 99025CLM 26252.26133748  .00003332  00000-0  63862-3 0  9999
2 31910  97.6575 253.7961 0222403  35.0933 326.4687 14.49725696682863

Sigue FENGYUN 1C DEB en tiempo real con AllMySat

Download on the App Store